Flag Weather past 2 weeks in Keratsini, Greece

Now
50 °F

Passing clouds.


Feels Like: 47 °F
Forecast: 49 / 57 °F
Wind: 7 mph from North

Location: Elefsis Airport

Current Time: Nov 23, 2014 at 11:34:01 PM

Latest Report: Nov 23, 2014 at 10:50 PM


Visibility: N/A

Pressure: 30.27 "Hg

Humidity: 76%

Dew point: 43 °F

Location of KeratsiniLocation

Historic Weather in Keratsini — Graph

°F

Keratsini temperature yesterday

Maximum temperature yesterday: 61 °F (at 12:20 PM)
Minimum temperature yesterday: 46 °F (at 4:20 AM)
Average temperature yesterday: 54 °F

Past Weeks' High & Low Weather Summary

 TemperatureHumidityPressure
High73 °F (Nov 17, 1:50 PM)100% (Nov 17, 5:20 PM)30.30 "Hg (Nov 17, 5:20 PM)
Low46 °F (Nov 22, 4:20 AM)32% (Nov 20, 10:50 AM)29.74 "Hg (Nov 14, 4:20 AM)
Average60 °F72%30.03 "Hg
* Reported Nov 8 9:20 PM — Nov 23 9:50 PM, Keratsini, Weather by CustomWeather, © 2014

Note: Actual official high and low records may vary slightly from our data, if they occured in-between our weather recording intervals... More about our weather records

Advertising

Keratsini weather history for previous 24 hours

 ConditionsComfort  
Time TempWeatherWind HumidityBarometerVisibility
9:50 PM
Nov 23
50 °FPassing clouds.5 mph76%30.27 "HgN/A
9:20 PM52 °FPassing clouds.6 mph72%30.27 "HgN/A
8:50 PM52 °FPassing clouds.8 mph72%30.27 "HgN/A
8:20 PM52 °FPassing clouds.9 mph72%30.24 "HgN/A
7:50 PM52 °FPassing clouds.7 mph72%30.24 "HgN/A
7:20 PM54 °FPassing clouds.8 mph67%30.24 "HgN/A
6:50 PM54 °FPassing clouds.9 mph67%30.24 "HgN/A
6:20 PM55 °FPassing clouds.10 mph63%30.24 "HgN/A
5:50 PM55 °FPassing clouds.10 mph67%30.24 "HgN/A
5:20 PM55 °FPassing clouds.13 mph63%30.24 "HgN/A
4:50 PM55 °FScattered clouds.12 mph63%30.24 "HgN/A
4:20 PM57 °FScattered clouds.14 mph63%30.21 "HgN/A
3:50 PM57 °FScattered clouds.10 mph59%30.21 "HgN/A
3:20 PM57 °FScattered clouds.9 mph59%30.24 "HgN/A
2:50 PM57 °FScattered clouds.12 mph63%30.24 "HgN/A
2:20 PM57 °FPartly sunny.13 mph59%30.24 "HgN/A
1:50 PM57 °FPartly sunny.9 mph59%30.24 "HgN/A
1:20 PM55 °FPartly sunny.3 mph63%30.24 "HgN/A
12:50 PM55 °FPartly sunny.10 mph63%30.24 "HgN/A
12:20 PM55 °FPartly sunny.5 mph59%30.27 "HgN/A
11:50 AM55 °FPartly sunny.6 mph59%30.27 "HgN/A
11:20 AM55 °FPartly sunny.8 mph59%30.27 "HgN/A
10:50 AM55 °FScattered clouds.8 mph59%30.30 "HgN/A
10:20 AM55 °FScattered clouds.8 mph59%30.27 "HgN/A
9:50 AM55 °FBroken clouds.9 mph59%30.27 "HgN/A
9:20 AM54 °FBroken clouds.7 mph63%30.27 "HgN/A
8:50 AM52 °FBroken clouds.7 mph62%30.27 "HgN/A
8:20 AM52 °FBroken clouds.7 mph62%30.27 "HgN/A
7:50 AM52 °FBroken clouds.6 mph62%30.24 "HgN/A
7:20 AM52 °FBroken clouds.3 mph62%30.24 "HgN/A
6:50 AM52 °FPartly cloudy.8 mph67%30.24 "HgN/A
6:20 AM52 °FPartly cloudy.8 mph67%30.24 "HgN/A
5:50 AM52 °FPassing clouds.9 mph67%30.24 "HgN/A
5:20 AM52 °FPassing clouds.8 mph67%30.24 "HgN/A
4:50 AM50 °FPassing clouds.9 mph71%30.24 "HgN/A
4:20 AM50 °FPassing clouds.8 mph67%30.24 "HgN/A
3:50 AM50 °FPassing clouds.8 mph67%30.24 "HgN/A
3:20 AM52 °FPassing clouds.13 mph62%30.24 "HgN/A
2:50 AM50 °FPassing clouds.12 mph67%30.24 "HgN/A
2:20 AM50 °FPassing clouds.7 mph67%30.24 "HgN/A
1:50 AM50 °FPassing clouds.8 mph67%30.24 "HgN/A
1:20 AM48 °FPassing clouds.6 mph71%30.24 "HgN/A
12:50 AM50 °FPassing clouds.5 mph67%30.24 "HgN/A
12:20 AM50 °FPassing clouds.8 mph67%30.24 "HgN/A
11:50 PM
Nov 22
50 °FPassing clouds.7 mph67%30.27 "HgN/A
11:20 PM50 °FPassing clouds.No wind67%30.24 "HgN/A
Weather by CustomWeather, © 2014

See weather overviewHow to use our weather pages